RH
34 36 45 53 54 54 54 61 78 90 97 104 102 87 78 86 89 89 93 97 99 94 93 94 95 101 106 108 109 111 109 105 104 103 100 95 92 89 85 83 81 79 76 73 71 69 66 63 61 58 54 50 48 45 41 35 28 20 15 13 12 12 14 14 15 16 18 19 21 21 21 23 24 24 25 24 24 25 26 26 26 26 25 24 23 23 22 22
42 37 42 50 54 55 61 76 94 102 102 103 103 90 80 84 87 93 101 101 96 94 98 102 106 109 109 107 107 106 104 103 102 97 94 91 90 88 87 85 83 79 76 73 69 66 63 61 58 55 52 49 43 36 27 19 14 12 12 13 15 17 19 20 21 21 22 22 23 23 23 23 24 25 25 24 23 23 23 23 23 23 22 22 22 21 21 20
50 44 41 47 51 56 77 98 105 104 103 103 101 92 88 94 101 107 106 98 93 96 102 108 109 107 106 105 104 104 104 104 103 99 98 95 92 92 91 88 82 77 72 68 65 63 61 58 56 51 46 38 28 19 14 12 13 14 16 18 20 21 21 21 21 21 21 22 22 22 23 23 23 23 23 22 22 21 20 20 19 19 19 19 18 18 17 17
51 52 46 45 48 58 85 105 104 102 103 100 98 97 97 100 106 107 101 96 96 100 106 109 107 105 105 103 103 104 102 103 103 101 99 95 94 94 91 84 77 71 66 65 63 61 59 55 49 40 29 20 14 13 14 16 17 19 20 21 21 20 20 20 20 21 21 21 21 22 23 22 22 23 23 22 22 21 20 19 17 16 16 16 16 15 15 15
45 56 50 42 44 59 89 104 102 102 101 99 100 101 102 103 104 104 101 100 100 104 108 108 106 106 104 102 102 101 101 101 101 101 99 95 91 87 81 74 68 65 65 64 62 58 53 44 32 22 15 13 15 17 18 20 21 21 21 20 19 19 19 20 21 21 21 21 21 22 23 22 22 24 24 23 22 21 20 18 17 16 16 15 15 14 14 13
38 51 42 37 42 58 90 105 100 101 100 100 100 95 96 101 104 104 102 102 104 107 108 104 103 104 102 97 96 98 100 99 98 98 96 91 86 79 72 68 67 67 66 62 57 49 36 25 17 14 15 17 19 20 21 21 21 20 20 19 19 20 21 21 22 23 23 23 23 24 25 24 22 23 23 23 22 21 21 20 19 17 16 15 14 14 13 12
29 37 29 35 47 58 87 105 101 101 99 95 93 89 92 98 100 100 100 102 105 107 106 103 101 102 99 89 86 89 92 93 93 91 88 85 80 73 69 69 69 66 62 55 43 30 19 15 16 17 19 21 22 22 22 21 20 20 20 21 21 21 22 22 23 24 25 26 26 26 27 27 26 25 25 26 25 25 24 22 20 18 16 15 15 14 13 12
22 25 22 36 51 58 81 102 104 101 94 89 89 90 93 94 93 94 97 101 105 105 103 102 101 101 99 93 90 87 86 89 89 87 83 78 73 72 72 70 67 61 52 38 25 17 16 18 20 21 23 23 23 22 21 21 20 20 21 22 22 22 23 23 23 24 26 27 27 28 28 29 30 29 29 28 28 27 25 24 22 20 18 17 16 15 13 12
20 21 18 39 65 73 88 102 106 101 89 86 89 91 90 88 91 97 103 104 102 101 100 102 100 99 101 101 99 94 92 91 88 84 78 74 74 73 70 65 60 49 34 21 16 17 19 21 23 24 24 23 22 22 21 21 21 21 22 23 23 23 23 22 23 25 27 28 29 30 30 30 30 30 30 30 29 28 27 25 24 22 20 19 17 16 15 13
19 18 17 50 87 97 104 104 103 102 94 93 94 93 91 91 97 104 106 102 99 101 101 101 99 100 99 95 98 100 98 93 87 81 76 76 74 68 65 59 46 29 19 17 19 21 22 24 25 24 23 23 23 22 22 22 23 23 23 24 25 24 23 24 26 27 28 28 29 30 31 31 31 31 31 30 30 30 29 28 27 25 23 21 19 18 17 15
19 21 21 56 95 104 107 104 100 101 99 102 104 103 101 101 106 106 104 100 100 101 100 100 100 101 97 90 93 97 95 90 83 79 77 72 66 64 58 43 26 17 18 20 22 24 25 26 25 24 24 23 23 23 24 24 24 24 23 24 24 25 25 26 27 28 28 29 30 32 34 34 33 33 33 34 34 34 33 31 30 28 26 23 21 19 18 16
19 30 31 53 93 106 103 102 100 101 101 99 99 104 108 107 105 102 100 100 100 100 100 100 100 100 96 89 87 88 86 82 78 75 69 64 63 57 40 23 17 19 21 23 25 26 25 25 25 25 25 24 25 25 25 24 23 23 23 23 23 25 26 27 27 28 29 30 32 34 37 38 38 39 40 40 40 38 36 34 32 30 28 26 23 20 18 16
28 41 50 63 94 108 101 101 98 98 102 95 85 88 98 103 103 101 101 101 100 100 100 100 100 98 92 87 87 85 80 76 73 67 62 62 58 39 21 17 20 21 24 26 27 26 26 26 25 25 25 25 26 26 24 23 23 23 24 24 25 25 25 26 27 28 29 30 33 37 40 41 42 43 45 45 43 40 38 35 32 31 29 27 24 21 19 16
52 59 75 88 100 105 100 100 97 91 92 94 85 76 84 98 104 103 102 101 100 100 100 100 99 96 93 94 90 81 75 71 64 61 64 58 38 20 17 20 22 24 27 27 27 26 26 25 25 26 26 26 27 26 25 24 25 25 25 25 25 24 24 27 30 30 30 30 35 39 41 42 44 46 47 46 43 40 37 34 32 30 27 25 22 20 18 16
61 73 91 100 101 103 101 99 101 95 92 97 86 71 85 101 104 103 101 101 101 100 100 96 94 95 98 93 81 73 69 64 63 67 60 37 19 17 21 22 24 27 27 27 27 26 25 25 27 27 26 26 26 26 27 27 27 27 27 26 25 23 24 27 30 30 29 30 35 39 40 40 42 44 45 44 41 38 36 33 31 28 25 22 20 18 16 15
71 85 99 102 100 101 100 99 100 99 98 101 88 80 98 105 100 99 98 99 100 100 100 96 96 97 92 80 72 70 66 68 73 62 37 19 18 21 22 25 28 28 27 27 27 27 28 28 27 26 27 26 24 24 26 29 31 30 30 29 27 25 24 25 27 29 28 29 35 38 37 39 40 41 43 42 39 37 35 34 31 28 25 22 20 18 16 15
90 95 101 101 100 100 100 100 100 100 101 101 94 96 105 101 99 100 98 100 100 100 100 98 97 90 80 73 70 71 75 80 66 37 19 17 21 21 24 28 28 28 28 27 28 30 30 28 27 27 26 25 24 26 28 30 31 31 29 31 33 28 24 24 26 28 28 29 34 35 34 37 38 38 40 39 37 36 35 34 31 28 25 23 21 19 17 16
98 101 106 102 100 100 100 100 100 100 100 98 99 102 101 99 101 100 99 101 97 96 96 95 90 79 73 72 74 82 84 68 37 19 19 21 21 24 27 29 29 29 28 29 30 28 27 25 25 24 24 26 30 32 30 28 27 27 26 29 33 31 26 25 24 25 28 29 30 31 34 35 35 35 37 37 36 36 36 34 32 30 27 24 22 20 19 18
93 94 100 103 104 100 99 101 100 101 99 99 102 101 100 100 100 98 99 99 97 96 93 87 78 72 73 79 87 88 67 37 19 19 21 21 24 27 29 30 30 29 29 29 27 25 25 25 24 24 27 31 33 32 29 26 26 27 26 25 28 33 32 28 24 24 27 29 27 31 36 34 33 34 34 34 35 36 35 33 33 31 29 27 24 22 20 19
91 87 88 98 104 101 100 100 98 100 101 100 101 100 100 100 99 99 100 100 99 94 85 77 73 75 85 94 91 67 35 19 19 22 22 23 26 28 31 31 29 29 28 26 25 26 26 27 28 29 30 32 32 31 29 28 28 27 26 24 26 34 35 30 26 24 25 27 28 35 39 33 32 33 31 32 34 35 34 34 33 33 32 30 27 26 24 22
96 95 92 94 98 98 100 98 95 98 101 100 100 101 100 100 99 98 98 98 94 85 78 76 77 87 98 92 65 34 20 20 22 22 24 26 28 31 33 30 29 29 26 26 27 29 29 30 31 31 32 32 31 30 30 29 28 27 27 25 25 30 33 31 28 25 24 27 32 38 38 35 32 30 29 30 32 34 34 33 34 35 35 34 34 32 27 23
98 100 99 98 98 98 101 101 96 97 101 100 99 100 100 99 97 94 93 90 84 79 77 80 89 98 92 63 33 20 21 22 23 25 26 27 30 33 33 30 29 27 26 30 31 31 31 30 29 30 31 31 32 32 31 30 28 27 27 26 25 25 27 28 29 27 25 30 37 36 35 35 31 26 27 29 30 33 34 34 35 36 38 39 38 33 27 23
100 100 99 100 101 100 102 100 94 99 105 104 101 102 101 99 96 92 88 85 82 81 84 92 100 89 60 31 20 21 22 23 25 27 27 28 30 32 32 31 29 27 28 30 31 30 29 27 28 31 32 34 36 35 33 31 29 29 27 26 25 23 22 24 27 27 26 31 36 33 32 32 27 25 27 28 29 33 34 35 37 38 41 41 39 34 29 26
100 100 99 101 100 101 100 91 84 93 101 100 102 106 105 102 96 90 87 85 86 90 96 98 83 54 28 20 22 22 24 27 27 26 28 29 29 31 32 31 30 29 30 32 32 30 28 28 30 33 36 39 39 38 35 34 32 30 28 26 24 22 21 21 24 26 26 30 33 32 31 28 24 25 27 28 29 31 34 36 38 39 40 39 39 38 36 33
100 101 100 101 100 98 93 81 75 83 91 94 100 108 108 102 93 88 87 89 95 100 96 76 47 27 21 23 23 24 27 28 27 27 28 28 30 31 32 32 31 32 33 33 32 29 29 31 34 37 40 41 41 40 37 36 34 31 29 27 25 23 22 21 21 24 26 28 30 32 30 25 24 26 27 28 28 29 32 35 37 37 37 39 41 42 43 42
100 102 99 100 101 96 90 83 85 92 96 99 102 106 104 96 91 90 93 99 103 93 68 40 25 23 24 23 24 27 29 27 27 27 27 29 31 32 33 32 33 34 34 32 31 31 32 36 40 42 42 42 41 40 38 37 34 32 30 28 26 25 24 21 20 22 25 27 29 32 30 27 28 29 28 27 27 28 31 34 36 35 37 40 44 46 47 47
101 102 99 101 100 95 93 93 98 100 101 101 102 100 97 96 96 97 101 102 87 59 35 24 24 24 23 25 27 29 28 26 27 27 28 31 32 32 34 34 35 36 34 32 31 31 36 43 45 44 44 42 41 41 39 37 35 34 33 30 29 27 25 22 21 21 23 25 28 30 32 35 37 36 32 27 26 28 31 33 36 37 39 42 46 49 49 49
103 101 99 101 98 96 98 99 101 101 100 100 99 100 101 101 100 102 100 80 51 31 25 25 25 24 25 27 29 29 27 27 28 29 30 31 32 34 34 34 36 36 32 29 30 35 43 47 46 44 44 43 44 42 39 36 36 36 34 32 30 28 27 26 24 23 22 23 26 29 35 40 43 42 34 27 27 28 31 35 38 38 40 44 48 50 50 49
101 99 98 100 99 99 100 99 100 100 99 98 102 107 105 101 103 99 77 46 29 25 25 25 25 26 27 28 30 29 27 28 30 30 30 32 34 34 33 35 36 32 29 30 37 45 47 43 40 40 42 45 45 42 38 38 37 35 35 34 32 31 32 31 27 24 22 22 23 29 37 43 46 44 35 30 30 31 35 39 40 40 41 43 48 51 51 50
95 97 98 99 98 99 100 100 102 102 101 102 106 106 101 102 100 77 46 28 26 27 25 26 27 26 28 29 30 28 27 30 32 32 34 37 37 35 35 35 33 31 34 41 46 45 40 37 38 37 38 41 41 40 40 38 35 34 34 33 34 35 35 35 31 26 22 23 23 28 38 46 47 44 40 37 35 34 38 42 41 41 43 44 48 51 50 50
97 98 99 99 99 100 101 103 105 104 102 104 105 102 103 103 83 48 29 26 27 27 27 28 27 27 30 30 29 28 30 34 35 35 36 36 34 32 31 30 29 33 41 47 46 41 38 38 39 37 36 38 39 40 38 35 34 33 32 32 35 36 36 38 36 30 25 24 25 26 35 47 49 45 44 44 40 36 36 40 42 42 43 46 49 52 53 54
101 100 100 99 99 101 100 103 106 103 103 103 102 102 103 88 55 31 26 27 27 29 29 28 28 30 30 30 29 31 35 38 36 34 33 32 30 29 30 30 32 36 38 39 40 40 39 36 35 35 35 36 37 37 35 35 34 34 33 33 33 33 33 35 37 36 31 27 27 26 30 43 51 50 49 47 43 38 35 40 43 42 41 44 48 54 57 57
101 102 100 98 100 100 100 103 104 103 102 101 101 104 94 62 35 27 27 27 29 30 30 30 30 30 30 31 31 35 39 38 35 33 31 29 28 29 31 34 35 35 34 33 33 36 36 33 32 32 32 33 33 33 34 35 35 35 33 30 29 30 29 29 32 37 37 30 28 27 26 35 51 56 54 51 45 39 37 40 41 39 40 43 48 53 58 60
104 105 101 100 100 100 100 102 102 102 100 99 104 99 72 40 27 28 27 29 31 31 32 32 30 30 32 32 34 38 39 36 34 32 30 28 27 28 31 32 33 33 33 34 32 33 34 32 30 29 30 31 31 32 33 35 36 35 33 31 31 31 30 30 33 38 39 33 28 27 24 29 47 60 59 54 48 41 39 38 37 38 40 43 48 52 58 61
103 103 102 100 100 101 101 100 101 100 99 102 101 78 45 29 28 28 29 32 33 33 34 32 31 32 33 35 38 40 39 36 34 31 29 28 26 28 29 29 30 33 35 36 34 34 33 33 32 31 31 33 35 36 35 35 36 36 38 38 35 32 33 35 37 38 39 36 29 26 24 25 41 61 64 56 50 46 40 36 34 38 42 45 49 53 57 60
100 101 101 100 102 103 100 100 101 99 101 102 84 51 31 28 28 29 32 34 34 35 35 33 33 34 36 39 41 41 39 36 33 31 28 27 26 27 28 28 30 34 36 36 36 36 36 35 35 35 36 37 39 42 41 36 37 42 44 40 36 35 36 36 35 36 38 39 33 28 26 25 34 56 66 58 53 52 44 36 35 40 45 49 51 53 56 60
99 101 102 101 101 101 100 100 99 100 102 90 59 33 28 29 29 32 34 34 37 37 36 35 36 38 41 42 42 42 40 36 34 31 28 27 28 28 29 30 32 34 35 35 36 37 38 39 40 42 43 42 40 42 45 43 43 45 45 41 39 38 38 36 33 33 37 40 37 31 28 25 28 47 65 64 58 56 48 39 38 43 49 50 50 52 57 61
101 102 101 101 100 100 100 100 100 102 93 65 38 29 29 29 31 34 34 37 40 39 38 38 39 42 44 43 42 41 39 37 35 32 30 30 31 31 32 34 34 33 33 34 35 37 40 41 42 43 44 45 43 41 44 48 46 43 45 45 43 40 38 38 36 34 35 38 38 34 30 26 25 40 63 69 62 58 52 44 42 46 50 49 48 52 58 61
101 102 102 101 100 100 100 99 101 96 71 42 30 30 29 30 33 34 35 39 42 40 41 41 42 45 45 43 41 41 40 39 36 33 32 32 33 34 35 34 34 34 34 34 36 38 40 41 42 43 43 46 49 45 44 46 46 44 45 46 44 41 39 39 40 40 38 37 38 36 32 29 25 34 59 70 62 57 56 50 46 47 49 49 49 52 58 62
102 103 102 101 100 100 100 101 98 77 47 31 30 30 30 33 34 34 37 41 42 42 42 42 43 44 44 42 42 42 42 40 38 35 33 33 33 34 35 35 35 35 36 37 38 39 42 45 46 46 46 47 50 49 45 45 48 48 47 45 42 41 41 39 40 43 41 39 40 38 34 31 27 32 54 69 63 58 59 55 51 50 49 50 50 53 59 63
101 101 100 100 100 99 101 100 82 52 33 30 30 30 33 35 35 36 38 40 41 42 42 43 43 43 42 42 42 43 43 41 38 36 34 34 34 35 36 37 37 38 39 41 42 44 45 48 49 49 50 50 50 50 46 43 47 51 49 45 42 41 42 40 38 43 46 42 41 41 36 31 28 30 50 68 65 60 62 59 55 52 49 50 53 57 61 63
100 100 100 100 99 100 101 87 58 35 30 30 29 32 35 36 36 36 36 37 38 40 42 43 42 41 41 42 42 43 43 42 39 37 36 36 35 36 37 38 39 40 42 44 46 48 48 49 51 52 52 51 48 47 44 41 43 48 49 46 43 42 43 41 39 44 51 47 42 43 39 33 28 28 47 68 67 63 66 63 57 54 50 51 58 64 66 65
100 100 100 100 100 99 89 64 39 31 31 29 31 35 36 36 37 36 35 36 37 40 44 45 44 42 41 41 43 44 43 43 41 39 37 37 36 37 37 38 40 40 42 46 48 50 50 48 48 48 49 48 44 41 41 39 39 44 49 48 45 43 41 41 41 45 52 51 44 44 43 37 30 28 46 69 70 68 72 65 58 55 51 55 64 70 71 69
100 101 100 101 99 89 66 43 32 31 30 29 33 36 36 37 37 36 36 37 39 42 45 46 46 43 41 42 43 44 45 44 44 42 40 39 38 39 39 40 41 41 42 45 48 50 50 46 41 40 41 40 37 36 36 37 39 43 47 47 43 40 37 39 42 43 50 53 48 45 44 40 33 29 45 69 73 73 76 67 57 55 53 60 70 75 76 73
101 100 101 99 89 67 45 33 31 30 29 31 34 36 37 38 37 37 38 39 40 42 44 47 48 46 45 43 43 45 46 46 46 46 44 43 42 42 42 43 42 42 42 45 50 52 52 49 42 37 37 36 34 35 37 40 42 43 44 43 41 39 36 38 41 41 46 52 51 46 42 40 36 30 44 68 75 76 78 67 59 59 59 66 78 83 82 76
100 99 98 88 67 45 34 32 31 30 31 33 35 37 38 38 38 38 38 39 41 42 45 49 52 52 51 48 46 46 46 47 48 48 46 46 44 44 44 44 44 44 44 46 50 52 52 52 49 42 40 39 39 42 44 45 45 44 44 44 43 41 38 37 39 40 45 50 52 49 42 39 36 31 42 66 76 78 76 66 62 65 66 73 84 88 85 79
99 92 78 61 44 34 32 31 30 31 33 35 37 39 38 39 39 38 39 41 42 43 47 51 55 57 56 54 52 50 48 48 48 47 47 46 45 45 45 46 46 46 46 46 49 52 52 53 53 49 44 43 44 46 48 47 46 45 47 47 45 43 40 37 38 41 45 46 47 48 44 39 36 33 41 65 78 76 71 66 66 70 70 75 85 89 87 82
81 66 49 38 35 33 32 31 31 33 35 37 39 40 40 40 40 40 42 43 43 44 47 51 55 56 56 55 54 53 52 50 49 48 48 47 46 47 47 48 48 47 47 46 46 50 52 51 54 55 51 47 46 47 48 50 49 48 49 48 46 44 40 36 37 40 43 44 44 45 43 39 36 34 43 66 79 72 64 66 70 71 70 75 83 87 86 82
51 41 36 35 35 33 32 33 34 34 36 38 40 41 42 42 42 44 45 44 43 44 45 48 51 51 53 53 53 54 53 52 51 50 49 49 49 49 48 49 48 46 46 46 45 46 49 50 52 55 56 52 50 51 52 54 53 50 49 48 47 45 39 34 36 38 40 43 42 42 41 39 36 34 45 68 80 70 61 65 72 71 69 75 81 81 82 81
37 36 36 35 34 33 33 34 35 37 38 39 41 43 44 45 46 48 47 45 43 42 42 44 46 46 48 49 50 52 52 52 52 52 52 52 51 50 49 47 46 46 45 45 45 44 46 49 49 53 56 55 53 54 53 53 52 49 49 50 48 45 38 34 35 37 39 40 40 40 39 38 36 35 48 71 79 69 62 67 73 71 69 76 80 77 79 83
34 35 34 34 34 34 34 35 37 39 40 41 43 45 46 48 49 50 50 47 44 42 42 42 43 44 45 46 48 50 51 52 52 52 51 51 50 48 47 45 44 45 45 45 45 44 44 48 49 52 56 55 53 52 51 50 50 51 51 50 47 44 40 36 34 35 37 38 39 39 37 37 38 38 54 76 77 67 67 71 73 71 70 76 79 77 79 82
34 34 34 33 33 34 35 36 37 40 42 43 45 47 48 50 52 52 52 49 45 44 43 43 44 44 44 45 46 47 49 49 49 49 48 47 47 46 45 44 43 44 45 45 45 44 45 48 48 49 53 54 53 52 52 51 53 55 52 48 46 45 43 39 34 33 37 38 38 38 36 38 40 41 60 81 75 66 75 80 74 72 74 79 82 81 81 82
Wind_Speed
39 41 42 43 43 43 43 42 41 41 41 41 41 38 34 32 31 30 29 28 28 27 26 26 26 27 27 27 28 29 31 32 33 34 35 36 37 38 39 40 41 42 44 45 46 48 50 52 54 56 59 60 62 63 63 62 61 59 57 55 54 55 56 57 59 60 62 63 64 66 66 67 69 70 72 74 74 74 73 74 77 80 84 86 88 90 92 94
38 41 42 43 43 43 41 40 40 41 41 41 40 37 33 31 30 29 29 28 28 27 27 27 27 28 28 29 30 32 33 33 34 34 35 37 37 38 39 40 41 42 44 46 47 49 52 54 56 58 59 60 60 59 58 55 53 51 50 51 52 54 56 57 58 59 59 60 61 63 64 64 64 66 68 70 72 72 71 71 72 74 79 83 85 87 90 92
36 39 42 44 44 43 41 41 41 42 42 41 40 36 33 32 31 30 30 29 28 27 27 28 28 29 30 31 32 33 33 34 34 35 36 36 37 38 39 41 42 44 45 47 49 52 54 56 57 58 57 56 54 51 49 48 48 48 49 51 52 52 53 54 54 55 56 56 57 57 59 60 59 60 64 66 68 70 70 71 71 71 75 78 82 84 88 90
35 37 42 44 44 43 43 42 42 42 41 41 39 36 34 33 32 31 30 28 28 27 27 28 29 30 31 32 32 32 33 33 34 35 36 37 38 39 41 42 44 46 48 50 52 53 55 55 55 54 52 50 47 45 44 46 47 49 49 49 49 49 49 50 51 52 52 53 54 54 55 56 56 58 61 63 65 67 68 70 70 71 72 74 76 79 82 85
34 36 41 43 44 44 44 43 42 42 41 39 38 37 36 34 32 31 29 28 27 27 27 28 29 31 31 31 31 32 32 34 35 36 37 38 40 41 43 45 46 48 50 51 53 53 53 52 50 48 45 43 43 43 44 45 45 45 46 46 46 47 47 48 49 50 51 51 51 52 54 55 55 58 61 62 64 66 67 69 70 70 70 71 72 73 76 79
34 37 39 40 42 44 44 43 42 42 42 40 39 38 36 34 31 29 28 28 27 27 27 28 29 31 32 32 32 33 34 36 37 38 39 40 42 44 45 46 48 49 50 51 51 50 49 46 44 42 41 41 42 43 43 42 41 42 43 44 45 46 46 47 48 50 51 52 53 54 56 58 58 59 62 64 67 68 70 71 71 71 70 70 71 72 74 77
33 37 37 36 40 44 44 43 43 42 43 41 39 37 35 32 30 29 28 27 27 27 28 29 29 29 31 33 34 35 36 37 38 39 40 42 43 45 46 47 49 49 50 49 47 45 42 40 39 39 40 40 41 41 41 41 41 41 43 44 45 46 47 47 48 50 52 55 56 57 59 62 63 63 65 68 70 72 73 74 74 74 73 73 73 73 75 77
31 36 36 35 38 43 44 44 43 43 42 40 38 36 34 32 30 28 28 28 28 29 29 31 31 30 31 33 34 36 37 38 39 40 42 43 44 45 47 48 48 48 46 44 42 39 38 37 38 39 39 39 38 39 39 40 40 41 42 45 46 47 48 49 51 52 55 57 58 59 60 62 64 66 68 70 73 75 76 78 79 79 79 78 77 77 77 79
28 34 36 34 36 40 44 44 44 44 42 40 38 36 34 32 30 29 28 28 29 30 30 31 32 32 32 31 32 35 37 38 39 41 42 43 45 46 47 46 45 44 42 39 37 35 35 36 37 37 37 37 37 38 38 38 40 41 43 45 48 50 51 53 55 55 55 56 57 59 61 63 66 67 69 72 74 77 79 82 84 85 84 83 81 80 79 79
28 33 35 35 36 39 43 44 44 43 41 38 37 36 34 31 30 29 29 29 30 30 28 27 29 31 32 31 32 34 36 38 40 41 42 44 45 45 44 43 41 39 36 34 33 33 34 34 34 35 36 36 37 37 38 39 41 42 43 46 49 52 55 56 56 55 54 56 57 59 63 65 67 69 71 73 76 79 82 84 86 88 88 86 83 81 79 79
27 32 36 38 38 39 41 43 43 41 39 39 38 37 34 31 30 29 29 29 28 27 26 27 29 30 32 33 33 34 36 38 40 42 43 43 43 41 40 39 36 33 31 31 31 31 31 32 33 34 35 36 36 37 38 39 40 42 45 47 49 52 54 54 53 54 55 57 59 61 64 66 68 70 73 75 78 79 81 83 85 87 88 87 85 81 78 77
29 34 37 39 38 37 38 39 39 38 38 40 40 36 33 31 30 28 27 25 23 23 24 26 29 30 31 33 34 35 37 39 40 41 42 41 39 38 36 34 31 29 29 29 29 29 30 30 31 32 33 34 36 37 37 38 41 44 47 49 50 51 51 51 52 54 56 57 59 61 64 67 70 72 75 76 77 78 80 81 83 85 86 87 85 82 78 75
30 35 36 37 36 35 34 33 35 37 37 37 36 34 32 32 30 27 26 23 22 22 24 25 28 30 32 33 35 36 37 38 39 40 38 37 36 34 31 28 27 27 27 27 28 28 28 28 29 30 32 33 35 36 38 40 43 46 47 49 50 50 50 52 53 55 56 58 60 62 65 68 71 73 74 75 76 77 78 80 81 82 83 83 82 80 79 77
32 36 35 35 35 35 32 29 28 31 33 33 32 32 30 29 27 27 27 26 25 25 27 28 30 32 33 33 34 35 37 38 38 36 35 34 33 29 26 25 25 25 25 25 26 26 26 26 27 29 31 33 35 38 40 42 44 45 46 47 48 49 50 53 55 56 57 59 61 63 66 69 71 73 74 74 75 77 78 80 81 82 81 80 79 78 77 77
35 37 36 34 34 36 34 30 26 24 25 26 30 30 25 23 24 25 26 26 26 27 29 30 31 32 32 32 34 35 36 36 34 33 33 31 27 24 23 23 23 22 23 23 23 23 24 25 27 29 31 33 35 38 41 43 44 45 47 47 48 50 53 54 57 58 58 59 62 64 66 69 72 74 75 76 77 78 79 81 82 82 82 80 78 77 76 75
37 38 37 36 37 36 34 32 30 27 24 25 29 26 20 20 21 21 22 22 22 24 25 26 28 30 31 32 34 35 34 33 32 32 30 25 22 21 22 21 20 20 20 20 21 22 25 27 29 31 33 34 36 38 41 43 45 47 48 49 50 52 55 56 59 62 61 60 63 65 66 69 74 76 77 77 77 79 80 82 83 84 84 83 81 79 77 76
38 41 41 40 38 35 33 31 31 31 29 29 28 22 18 18 18 18 19 19 21 21 22 24 27 30 32 34 34 33 31 31 31 29 25 21 19 20 19 18 18 18 18 18 20 23 26 29 32 33 35 37 40 42 43 44 44 45 47 51 54 53 55 58 60 63 63 62 64 66 67 71 75 76 77 78 78 80 81 83 85 86 86 85 84 83 81 80
37 41 42 39 35 34 34 33 34 33 32 30 26 21 19 20 21 22 22 22 23 24 25 28 30 32 33 33 31 30 29 29 28 24 20 18 18 18 17 16 15 15 16 18 21 24 27 30 32 34 36 40 42 43 43 43 43 45 47 50 53 54 55 58 60 62 64 63 62 66 71 74 75 76 77 78 79 81 83 85 87 89 89 88 87 86 85 83
34 37 40 39 37 35 33 33 34 33 30 27 24 23 23 24 25 24 24 25 26 28 29 31 32 32 31 30 29 28 28 26 22 19 17 17 17 16 15 13 13 14 16 19 22 25 29 31 33 35 37 40 41 42 42 43 45 47 48 48 51 55 56 58 60 62 64 65 63 69 75 74 75 78 78 77 80 82 84 86 89 91 92 92 91 90 89 87
28 28 31 34 34 32 29 30 31 29 26 24 24 25 25 25 25 24 25 26 27 29 30 31 31 30 29 28 27 27 25 21 18 16 16 16 16 14 12 12 12 14 17 21 24 27 30 32 34 36 37 38 40 42 43 45 47 49 49 49 52 56 58 58 60 62 64 66 68 73 76 75 77 78 77 78 81 83 85 87 90 92 94 95 95 95 94 92
26 24 24 26 27 26 26 27 28 26 24 24 25 25 24 25 24 25 25 26 28 29 30 30 29 27 26 25 25 23 20 16 15 16 16 15 14 12 11 12 13 16 20 23 26 28 31 32 34 36 38 39 41 43 46 47 48 50 52 53 54 56 58 59 59 62 65 69 73 75 76 78 78 77 77 80 82 84 87 89 91 94 96 98 99 98 96 94
30 30 30 31 30 29 29 29 28 26 27 25 24 25 25 25 26 26 27 27 28 28 28 27 26 25 24 23 22 19 15 14 15 15 14 14 13 12 13 14 15 18 21 24 26 28 30 32 33 35 38 41 44 46 48 49 49 51 54 56 56 54 56 60 61 62 66 71 75 75 77 79 77 76 79 81 83 86 89 91 94 97 99 101 102 100 97 96
36 35 36 36 36 33 31 30 27 27 30 27 25 25 25 26 27 27 27 27 27 27 25 24 23 23 22 20 17 15 13 13 14 14 14 13 13 14 15 15 17 19 22 24 25 27 28 30 32 34 38 41 45 47 49 50 52 54 55 57 58 56 54 58 63 64 66 70 74 74 76 78 77 78 81 83 85 88 91 94 97 99 101 103 103 102 101 100
40 39 39 39 39 34 30 27 24 24 28 27 25 26 26 27 26 26 26 25 25 23 21 21 21 20 19 16 14 12 12 13 13 13 13 13 14 15 16 17 19 21 23 24 26 26 27 29 31 34 38 41 45 47 49 51 53 54 56 57 59 59 58 60 64 66 67 69 72 75 76 77 77 80 83 85 86 88 91 96 98 100 101 101 103 106 107 107
41 42 41 40 41 37 31 26 22 21 22 23 23 24 24 25 25 24 23 22 20 20 19 19 19 17 16 13 11 11 12 13 13 13 13 13 15 16 16 17 19 21 22 23 24 26 27 29 32 35 38 41 44 47 50 52 54 55 56 58 60 63 64 63 65 68 70 70 72 76 77 76 79 82 84 86 86 86 90 95 99 100 100 103 107 110 111 112
42 42 42 41 40 36 29 22 18 17 18 20 21 22 22 23 21 20 19 18 18 18 18 17 16 15 13 11 11 12 12 13 13 13 13 13 15 16 17 18 20 20 21 22 23 25 27 30 33 36 39 41 44 46 49 52 55 57 59 61 64 67 69 67 66 69 72 72 73 76 78 79 83 86 87 87 86 88 91 95 99 102 104 108 112 114 114 114
42 42 42 40 35 28 21 17 16 17 19 20 20 20 20 19 18 17 16 17 17 17 16 15 14 13 11 10 11 12 13 13 13 13 13 13 14 16 17 19 19 19 20 21 23 24 27 31 34 37 40 42 44 46 48 51 54 58 61 64 66 68 70 69 69 71 73 74 74 76 80 84 88 89 90 90 89 91 94 97 101 106 110 113 115 116 116 115
42 41 39 34 27 20 18 17 18 19 20 19 19 18 17 16 16 15 15 16 16 15 14 13 12 11 10 10 12 13 13 13 13 13 13 14 15 16 17 19 19 20 20 21 23 25 29 32 35 38 41 43 44 46 48 51 54 58 62 64 65 67 69 72 73 74 74 75 76 77 81 85 89 91 91 93 94 95 97 100 105 109 112 114 116 117 116 116
41 38 34 27 22 20 19 19 19 20 19 18 16 16 15 15 15 15 15 15 14 14 13 12 11 10 10 12 13 13 13 13 13 14 14 14 15 16 17 18 19 21 22 23 25 29 31 33 35 37 41 44 45 47 49 51 54 57 60 62 64 67 70 73 75 75 75 77 78 80 82 85 88 91 93 96 98 99 100 102 106 109 112 113 115 116 116 117
37 33 29 26 23 21 20 21 21 19 18 16 15 15 14 14 14 14 14 14 13 13 12 11 10 10 11 13 13 13 14 14 14 14 14 14 15 16 17 18 20 22 25 28 29 31 32 34 36 38 41 43 46 48 50 52 54 55 57 60 64 67 70 73 76 75 76 79 82 83 85 87 88 91 95 98 100 100 101 102 104 108 111 114 115 116 117 118
31 30 29 28 24 21 21 22 20 19 17 16 15 14 14 14 14 14 13 13 13 12 12 11 11 11 12 13 13 14 14 14 14 14 14 15 17 18 18 19 20 23 26 29 30 31 33 35 37 40 42 44 46 48 51 53 54 55 57 60 63 66 69 72 76 78 78 81 84 85 86 88 89 92 95 98 99 100 100 101 104 107 110 112 115 118 120 121
31 32 31 27 23 21 22 21 19 17 16 15 14 14 14 14 14 13 13 13 12 12 12 12 12 12 13 14 14 14 14 15 15 15 16 17 18 18 18 19 20 22 24 27 30 33 35 36 37 40 42 44 46 48 51 53 55 57 58 61 63 65 67 69 74 79 81 83 85 87 86 87 89 92 94 97 98 99 100 101 103 105 108 111 114 118 120 122
33 32 29 25 22 22 22 19 17 16 15 15 15 15 14 14 14 14 13 12 12 12 13 13 14 14 14 14 14 14 15 16 16 17 17 17 17 18 18 19 22 24 27 29 32 34 35 36 37 39 42 43 45 47 50 53 56 58 60 62 64 67 68 69 72 77 81 83 84 87 87 87 89 91 94 96 98 99 100 101 102 104 107 111 114 117 120 123
31 30 27 24 23 22 19 17 16 16 15 16 15 15 14 14 14 14 13 12 12 13 14 15 15 15 15 14 14 15 16 17 17 18 18 18 18 19 20 22 25 28 29 31 33 34 36 38 39 40 42 45 47 48 51 54 57 60 63 66 69 71 73 74 75 77 80 82 83 86 88 89 90 92 94 96 99 100 100 101 102 104 108 112 115 117 120 123
27 26 25 24 22 21 18 17 16 16 16 16 16 15 15 15 15 14 13 12 13 14 15 16 16 16 15 15 15 16 17 18 19 19 19 20 20 21 23 25 28 30 31 32 34 35 37 40 42 43 45 47 50 52 53 55 58 61 65 68 71 73 75 76 77 78 81 83 84 85 89 91 91 92 94 95 98 100 101 102 104 106 109 113 115 117 120 122
25 25 24 23 21 20 18 17 17 17 17 17 16 15 15 15 15 14 13 13 14 16 17 17 17 16 16 16 16 17 18 19 20 20 21 22 23 24 26 28 30 31 32 33 35 38 40 42 45 47 48 50 52 55 56 57 60 63 65 68 71 75 76 76 76 78 81 84 86 87 88 90 90 90 92 95 99 101 102 104 106 108 110 113 115 117 119 122
27 27 25 22 20 19 18 18 18 18 18 17 16 16 16 16 15 14 14 14 15 17 18 18 18 17 17 17 17 18 19 20 21 22 23 23 25 27 29 30 31 32 33 35 37 40 42 45 47 49 51 52 53 55 58 60 61 63 66 68 71 75 78 79 78 77 79 82 86 88 89 90 90 90 92 96 99 101 102 104 106 108 110 112 114 116 119 121
29 27 23 21 20 19 19 19 18 18 18 17 16 16 16 16 15 15 14 15 17 18 18 18 18 18 18 18 19 19 21 22 23 23 24 25 27 29 30 31 32 34 35 37 39 41 44 46 48 50 52 54 56 56 58 61 62 63 66 68 71 74 78 81 81 80 80 82 85 87 90 91 92 91 92 95 97 98 100 102 105 106 108 110 112 114 117 120
28 24 22 22 21 20 20 20 19 19 18 17 17 17 17 16 16 15 15 16 18 19 19 20 19 19 19 19 20 21 22 23 23 24 24 26 28 30 31 33 34 36 37 39 41 44 46 48 49 51 52 55 57 58 59 61 63 63 65 67 70 73 78 82 83 83 82 84 86 88 90 92 93 93 93 94 95 97 99 101 104 106 108 110 111 113 116 119
25 23 22 22 22 22 22 21 20 19 18 17 17 17 17 16 16 16 17 18 19 20 21 21 20 20 20 20 21 22 23 24 24 24 25 27 29 30 32 34 36 38 39 41 43 45 47 50 51 52 53 55 57 60 62 64 66 66 66 68 70 73 77 80 83 83 83 85 87 90 92 93 95 94 93 94 96 98 100 101 104 106 108 110 111 113 115 118
24 23 23 23 23 23 22 21 20 19 18 18 18 18 17 17 17 17 18 19 20 22 23 23 22 21 21 21 22 23 24 25 25 25 26 28 29 31 34 36 38 40 42 44 46 47 48 50 52 53 55 56 58 61 63 65 68 69 69 69 71 73 77 80 82 83 84 85 88 91 93 94 94 95 94 95 96 98 100 101 104 106 108 109 111 113 115 117
24 24 24 24 24 23 22 21 20 20 19 19 18 18 18 17 17 18 19 20 22 23 25 26 25 23 23 23 24 25 26 26 27 27 28 29 31 33 35 37 40 42 44 45 47 48 49 50 52 53 55 57 59 61 63 65 66 69 70 70 71 73 77 80 82 83 84 85 86 90 93 94 94 95 95 95 97 98 100 101 103 105 108 109 111 113 115 117
26 26 26 25 24 23 22 22 21 21 20 20 19 18 18 18 18 19 20 21 23 25 26 27 27 26 25 26 26 27 28 28 29 29 30 31 33 35 37 39 41 43 45 47 48 49 50 50 51 52 55 58 59 61 63 64 65 66 69 71 72 74 76 79 82 82 83 86 86 88 92 95 96 96 96 96 97 98 99 100 102 105 107 109 111 113 115 117
27 27 26 25 24 23 23 23 22 22 21 20 19 19 19 19 19 20 21 22 24 26 27 28 29 29 28 28 28 29 30 30 31 32 33 34 35 37 39 41 43 45 47 48 49 50 51 52 53 53 54 57 59 61 62 63 65 65 68 71 74 76 78 79 81 81 82 84 86 87 90 94 96 96 95 94 95 96 98 98 101 104 107 110 111 113 114 116
27 26 25 25 24 23 23 23 23 23 22 21 20 20 20 20 20 21 22 23 25 26 28 29 30 30 30 30 30 30 31 32 33 34 36 37 39 40 42 44 45 47 48 49 50 51 53 55 56 56 57 59 62 63 64 65 66 68 70 74 77 79 80 80 81 81 81 84 88 89 89 91 94 95 93 93 93 95 96 97 100 104 107 109 111 112 114 115
27 26 25 24 24 24 24 24 23 23 22 21 21 21 20 21 22 22 23 24 26 27 28 29 30 31 31 31 31 32 33 34 35 36 38 40 41 43 44 45 47 48 49 50 50 52 54 57 60 60 60 63 66 67 68 67 68 71 74 77 80 81 82 81 81 81 82 83 87 90 90 90 93 94 93 92 92 94 95 96 99 103 106 108 110 112 113 115
26 25 24 24 24 24 24 24 24 23 23 22 22 22 22 22 23 24 24 25 26 27 28 28 29 30 31 32 33 33 34 35 36 38 40 41 43 44 46 47 48 49 50 51 51 52 54 57 61 62 62 64 67 68 69 69 70 72 75 78 80 82 82 81 81 81 82 82 84 88 91 91 92 93 93 91 91 93 94 96 99 102 105 107 109 111 113 115
25 25 24 24 24 24 24 24 24 24 24 23 23 23 23 24 24 25 26 26 27 27 28 29 30 31 32 33 34 35 36 37 38 40 41 43 45 46 47 48 49 50 51 52 52 53 55 57 60 63 64 65 67 69 70 71 72 74 76 79 80 82 81 80 80 80 82 83 84 86 89 90 91 92 92 91 91 92 94 96 99 102 104 106 108 110 112 114
24 24 24 24 24 24 24 25 25 25 25 25 24 25 25 26 26 27 27 28 28 28 29 30 31 32 33 34 35 37 38 39 40 42 43 45 46 47 48 49 50 51 52 53 54 54 56 58 60 62 65 66 68 70 71 73 74 75 76 79 80 82 81 80 79 79 81 82 84 84 86 88 89 91 92 90 91 92 94 96 99 101 103 105 107 109 111 114
24 24 24 24 24 25 25 26 26 27 27 26 26 27 27 28 28 28 29 29 30 30 30 31 32 33 35 36 37 38 39 40 41 42 44 45 47 49 50 51 52 53 54 55 56 57 58 59 60 62 64 66 67 70 71 72 73 74 76 78 80 82 83 81 79 79 80 81 83 84 85 86 87 89 90 89 90 92 94 95 98 100 102 104 106 108 111 114
25 25 24 24 25 25 26 27 28 28 28 28 28 29 29 30 30 30 31 32 32 32 33 33 34 35 36 37 38 39 40 41 42 44 46 47 49 51 52 54 54 55 56 57 58 59 59 60 61 62 64 66 67 69 71 72 73 74 76 78 79 82 83 83 81 80 80 81 83 84 84 85 86 88 89 89 89 91 93 95 96 98 101 103 106 108 111 113
24 24 25 25 25 26 27 28 29 29 30 30 30 31 31 32 32 33 33 34 34 34 35 36 36 37 38 39 40 41 42 43 45 47 48 50 52 53 55 56 56 57 58 59 60 61 61 61 62 62 64 67 69 70 72 73 74 75 76 78 80 81 83 84 82 80 81 82 83 83 84 84 85 86 87 87 88 90 92 95 95 97 100 103 105 108 110 112
Wind_Direction
190 190 190 192 195 197 198 199 201 205 208 211 215 218 216 217 220 223 227 230 235 239 244 248 251 253 255 258 261 263 265 266 268 271 273 275 278 281 283 285 286 287 287 289 290 291 292 293 294 295 296 297 297 298 298 298 299 300 300 302 304 306 307 309 309 309 309 308 306 304 302 299 298 296 294 293 292 290 290 289 289 289 289 288 288 287 286 285
193 194 193 194 196 198 200 201 202 206 210 213 218 220 218 220 223 226 230 233 237 241 246 250 253 257 260 263 265 267 268 270 273 275 277 279 282 285 286 287 288 289 290 291 293 294 295 296 297 298 299 299 300 300 301 302 303 305 308 311 314 314 314 313 311 308 306 303 300 299 297 295 294 294 293 292 290 288 287 286 285 286 286 286 286 285 284 284
194 197 197 197 197 198 198 201 204 208 211 214 218 220 221 222 225 228 232 235 239 243 248 253 258 261 264 266 267 269 270 273 275 276 279 282 284 286 287 288 289 291 293 294 295 296 297 299 299 300 300 301 301 303 306 309 313 317 319 318 317 315 312 309 306 304 302 300 299 298 297 296 296 297 296 295 295 294 292 289 287 285 284 284 284 284 283 283
195 198 200 200 199 198 198 201 206 209 213 216 219 221 223 225 227 230 233 237 241 246 252 257 261 264 265 266 268 270 272 274 276 278 281 284 285 286 287 289 291 293 295 296 298 299 300 301 301 302 303 305 307 311 317 321 322 323 321 317 314 311 309 307 306 304 303 303 302 302 301 301 302 304 303 303 304 303 302 299 296 293 290 289 288 286 285 284
197 199 202 202 201 199 198 202 207 211 215 218 220 222 224 227 229 231 235 238 243 248 254 260 263 265 265 266 268 271 273 275 277 280 282 284 285 286 288 291 294 296 298 300 301 302 303 303 305 306 309 314 320 324 326 325 322 319 317 314 312 312 311 311 311 311 310 309 309 309 310 309 310 312 312 312 311 311 310 308 306 304 301 299 296 294 291 289
199 202 205 204 202 201 200 203 208 212 215 217 220 222 224 227 230 233 236 240 245 250 255 261 264 266 267 268 271 272 275 277 279 282 283 285 286 288 292 295 298 300 301 303 303 305 306 308 311 315 320 325 327 326 324 322 320 318 316 316 317 317 317 318 319 320 319 319 319 320 320 319 318 319 319 319 318 318 317 316 314 312 310 307 304 301 299 297
201 205 206 203 203 203 201 204 209 213 216 217 220 223 225 228 231 234 238 242 247 251 256 260 262 266 270 272 273 276 278 280 281 283 285 287 290 293 296 299 301 303 304 305 307 309 312 316 321 325 327 328 326 324 323 323 323 323 323 323 323 324 324 325 326 327 327 328 328 328 327 327 326 326 326 326 325 324 323 322 321 319 317 315 312 309 307 305
204 206 205 201 203 204 204 206 210 215 217 219 222 225 228 230 233 235 240 244 248 253 257 260 262 266 271 273 275 277 279 281 283 285 287 290 294 297 300 302 304 306 308 309 312 315 321 326 328 328 326 325 325 325 326 327 327 328 329 329 329 330 331 332 332 333 333 333 332 332 331 331 331 331 331 330 329 328 327 327 326 325 324 322 320 317 314 312
204 205 201 197 200 204 206 208 212 216 218 220 222 226 228 230 232 236 240 245 249 255 259 264 267 268 270 274 276 277 279 281 283 286 290 295 298 301 303 306 308 310 312 315 319 324 329 330 327 325 324 326 327 328 329 331 332 334 334 335 334 335 337 337 338 338 336 334 334 335 335 335 335 335 334 332 331 331 331 331 330 329 328 326 324 321 319 317
202 203 197 193 197 200 204 209 214 218 220 221 224 227 229 231 234 238 242 247 252 256 260 265 269 270 271 274 276 278 280 283 286 291 295 298 301 304 307 309 311 313 317 322 326 330 330 327 325 326 328 329 330 332 335 337 338 338 339 341 340 340 341 342 340 338 336 336 337 339 340 339 339 337 336 336 336 335 334 333 332 331 329 328 326 325 323 321
199 199 195 193 196 198 203 209 214 218 221 223 226 228 229 232 236 241 246 250 254 258 261 263 266 269 272 274 277 280 283 287 291 295 298 301 304 307 310 312 315 318 324 328 330 330 328 326 328 330 331 332 335 338 341 341 341 342 344 345 345 345 343 342 339 338 339 341 342 344 344 343 342 341 341 341 340 338 336 335 333 331 330 329 329 327 325 324
195 195 194 194 196 199 203 209 213 217 222 224 225 226 229 233 237 242 246 249 252 256 260 263 267 271 274 277 280 283 286 291 294 297 301 304 308 311 313 315 319 325 329 330 328 327 328 330 332 333 334 338 342 344 343 342 344 346 347 347 348 348 345 341 341 342 344 345 345 348 349 348 347 347 347 346 343 341 339 336 334 333 332 332 330 329 329 329
190 191 191 193 195 199 203 209 214 215 219 225 225 224 227 231 235 240 241 242 244 250 256 264 270 274 278 281 283 287 291 294 297 300 304 309 312 314 315 320 326 331 331 328 326 328 333 334 335 337 340 344 346 345 343 345 348 350 350 351 352 350 347 344 345 347 347 346 348 352 354 353 353 352 352 349 346 343 341 338 336 335 335 333 333 333 333 334
184 186 187 190 195 198 200 205 214 218 221 226 228 224 224 230 235 239 242 242 244 250 257 264 271 276 280 283 287 291 295 297 300 305 310 313 314 315 320 328 332 331 327 325 328 332 334 336 340 344 346 348 347 345 347 351 353 353 354 355 353 350 349 350 350 350 350 349 351 355 357 357 357 356 355 352 349 345 342 339 338 337 336 335 336 337 338 338
180 183 183 188 195 197 198 199 202 211 218 225 228 225 225 231 234 239 244 248 254 260 265 269 273 276 279 284 290 294 297 301 305 310 313 313 314 320 328 332 331 327 325 328 332 334 336 341 345 346 347 347 345 348 351 353 354 354 354 354 353 352 353 355 353 353 353 352 353 357 358 357 358 358 356 353 350 346 343 342 341 339 338 339 340 341 341 341
179 181 182 188 195 196 198 203 205 207 212 222 229 228 227 231 235 243 250 254 259 265 270 271 272 275 281 289 294 298 302 307 310 312 312 313 319 329 333 330 326 326 328 333 336 340 345 346 346 345 346 344 344 349 354 355 354 353 352 351 353 355 355 355 356 356 356 355 355 356 357 358 359 358 356 354 350 347 346 345 343 343 343 344 345 345 345 345
179 182 184 190 194 194 197 204 208 211 215 223 230 230 228 231 236 240 243 244 248 255 261 265 271 279 287 293 297 303 307 309 310 311 312 319 328 333 332 327 326 329 333 339 343 347 348 346 345 344 343 344 348 354 356 356 353 351 350 351 353 354 354 356 358 358 357 358 356 354 356 360 359 357 356 354 351 349 349 348 347 347 348 348 349 350 350 349
180 183 187 189 190 192 198 203 207 211 216 225 230 226 222 225 228 230 233 238 246 253 260 269 277 284 291 296 302 306 307 308 308 311 317 327 332 332 328 325 327 332 338 342 342 342 341 340 341 341 343 349 354 356 355 352 349 350 351 351 351 352 354 357 358 357 358 358 356 354 357 0 358 356 356 354 352 353 352 351 351 351 351 352 353 353 353 353
180 186 190 192 193 196 202 208 212 215 221 228 228 221 219 225 229 233 240 247 254 261 268 276 282 288 295 300 303 304 304 307 309 314 325 331 330 327 326 326 329 335 337 334 332 334 336 337 340 343 348 354 355 353 350 350 351 352 351 349 349 352 355 357 356 357 358 357 356 357 359 358 357 356 355 354 354 355 355 354 354 355 355 355 355 356 356 356
181 184 190 195 198 202 209 218 221 222 225 224 218 218 223 229 233 239 246 253 261 268 274 281 287 293 298 299 300 302 304 307 312 323 330 329 324 322 324 323 324 326 322 321 327 333 337 341 345 348 352 353 352 351 351 353 354 353 351 350 352 354 355 355 356 358 358 357 359 360 358 356 357 355 354 354 356 357 357 357 357 358 358 358 359 359 359 358
182 183 190 196 202 209 216 227 229 222 214 211 212 219 226 230 235 242 250 258 265 272 278 284 290 294 296 297 299 302 304 310 321 328 325 320 317 317 316 311 312 315 317 324 333 339 342 346 349 351 352 352 352 352 354 355 355 354 353 353 355 355 354 353 355 357 358 360 1 360 357 356 356 354 353 355 357 358 359 359 359 0 0 1 2 2 1 360
183 187 193 197 202 209 215 227 232 218 206 207 216 224 231 237 243 249 256 263 269 276 282 286 290 292 293 296 298 300 305 317 326 321 317 316 313 310 307 305 308 314 323 335 340 343 344 346 349 352 352 353 354 355 356 356 355 355 356 355 354 354 354 353 355 357 360 1 1 359 358 357 355 354 354 356 358 359 0 1 2 3 3 3 3 2 1 1
181 187 193 195 199 206 214 224 227 215 210 216 225 231 239 245 251 256 262 267 273 279 283 286 288 289 291 294 296 300 311 322 321 313 312 310 303 302 303 305 311 320 329 336 338 340 342 345 349 352 353 354 355 356 356 356 357 358 358 357 354 353 354 355 355 357 360 1 360 359 359 357 355 356 356 357 359 0 2 3 4 5 5 4 4 3 3 2
180 184 192 196 200 205 211 218 219 216 220 227 234 239 245 250 255 260 265 270 275 278 281 283 285 288 290 291 296 306 316 318 311 306 305 301 299 302 304 309 318 327 333 336 339 342 344 347 350 352 354 355 355 356 356 357 357 358 358 357 355 353 354 357 357 357 359 360 359 359 359 357 357 358 358 359 360 1 2 4 5 5 5 5 5 5 5 4
184 186 194 201 204 208 214 224 228 226 227 231 235 240 246 252 258 262 266 270 273 276 279 281 284 285 285 289 300 312 314 308 301 300 299 298 301 303 306 314 324 332 335 337 340 343 345 349 351 351 353 354 355 356 356 356 357 357 357 356 356 355 356 357 358 358 357 358 359 359 358 358 358 359 359 360 359 0 2 4 4 5 5 6 6 7 7 6
190 191 197 204 208 214 223 230 227 220 221 226 232 238 246 253 258 262 264 268 271 276 278 279 280 279 281 292 306 310 307 299 296 297 298 300 302 304 310 318 327 333 334 335 339 343 347 350 350 351 353 353 354 355 356 356 356 357 357 357 358 358 357 357 358 358 357 356 358 359 358 359 360 360 360 360 359 0 2 4 4 5 6 7 8 8 7 7
195 197 201 206 211 217 219 214 205 206 215 225 232 240 247 252 256 259 264 269 273 275 274 273 273 274 282 298 304 303 299 295 295 296 299 301 303 307 314 321 327 331 332 335 339 343 347 350 351 353 353 353 354 355 355 355 356 356 357 358 359 358 357 356 357 358 357 356 357 358 359 0 0 0 360 360 0 1 2 4 5 6 7 7 8 8 8 7
199 201 203 206 208 206 200 196 201 211 220 228 235 242 247 251 255 261 269 274 273 271 269 267 269 274 287 298 297 294 292 292 294 296 297 300 303 309 314 320 326 326 326 330 336 343 348 350 352 353 352 352 353 353 354 355 356 357 358 358 358 357 357 356 356 358 358 357 357 358 0 1 0 359 360 360 1 2 3 4 5 6 7 7 7 7 7 7
201 202 201 198 195 195 196 199 209 219 225 231 236 241 247 252 260 268 273 273 268 265 263 262 268 277 288 292 291 289 289 290 292 293 296 301 306 310 313 318 320 320 324 333 342 347 348 347 348 350 351 352 352 352 353 355 356 357 357 356 357 357 357 356 355 356 358 358 357 358 359 0 0 359 359 1 1 2 4 5 6 6 6 6 7 7 7 8
200 199 194 188 188 195 201 206 215 223 228 233 237 244 251 259 268 272 272 267 262 260 258 259 270 280 285 288 287 286 286 289 292 295 300 303 306 309 312 315 319 327 336 342 345 343 342 343 345 347 350 351 351 352 353 354 355 355 355 355 357 357 356 356 354 355 357 358 358 358 359 359 360 360 360 1 1 3 3 4 5 6 6 6 6 7 7 8
191 187 185 185 187 196 207 212 220 225 230 235 242 249 257 265 270 270 267 262 256 254 255 261 274 281 284 285 284 284 285 288 293 296 297 298 300 305 309 315 324 335 340 340 339 338 340 343 344 346 348 350 351 352 352 352 353 352 353 355 356 356 356 355 354 354 357 359 358 358 358 358 358 360 0 0 1 2 3 3 5 5 5 6 6 7 7 8
181 180 183 186 188 201 213 218 222 228 234 239 246 254 261 266 268 264 260 255 249 249 253 263 274 279 281 282 282 282 283 287 291 293 294 297 302 310 315 321 327 331 331 332 334 337 339 341 342 344 347 349 350 350 351 351 351 351 353 355 355 355 355 355 355 354 355 358 358 357 357 357 358 360 360 360 0 1 2 3 4 4 5 6 6 7 7 8
178 181 184 187 193 207 216 219 224 231 238 244 250 258 262 264 262 259 253 248 244 248 255 264 272 275 278 279 279 278 281 285 289 291 294 300 308 314 318 322 324 326 328 330 332 335 336 337 340 343 344 346 348 349 350 350 350 351 353 353 353 353 354 354 355 355 354 356 358 356 356 357 358 359 359 359 359 360 1 2 3 4 5 6 6 7 7 7
180 183 186 191 199 209 216 221 227 235 242 249 255 259 260 259 257 253 248 243 245 251 259 266 271 275 278 278 277 277 281 285 288 291 296 302 309 313 316 319 323 326 329 330 331 334 335 336 339 341 342 344 346 348 349 349 349 351 353 353 353 354 354 354 355 355 354 355 357 357 356 357 357 358 358 358 358 359 0 1 2 3 5 5 6 7 7 7
182 186 193 198 203 209 216 223 231 239 246 252 256 257 256 254 252 247 242 241 247 255 261 267 272 275 277 276 275 276 280 283 287 292 298 304 309 313 317 320 324 326 329 331 333 334 336 337 339 341 342 344 346 347 348 349 350 351 352 352 352 353 355 355 354 354 354 353 355 357 357 357 357 357 357 357 358 359 359 0 1 3 4 5 6 6 6 6
187 195 201 203 207 213 219 227 236 242 248 252 254 253 251 249 246 242 239 241 249 256 262 267 272 275 275 274 274 276 279 283 288 293 299 305 310 315 319 322 325 326 329 331 333 335 336 337 339 341 342 344 346 346 347 348 350 350 350 350 351 352 353 354 354 354 354 353 353 356 357 356 356 356 356 356 358 358 358 359 1 2 4 4 4 5 6 6
193 199 203 206 212 219 225 234 240 244 248 251 251 249 247 244 241 239 239 242 249 256 262 267 271 274 273 273 273 276 279 284 290 295 301 308 313 318 321 323 325 327 329 331 333 335 336 337 339 341 342 343 344 345 345 347 348 348 348 349 350 351 351 352 353 354 354 353 352 353 355 356 356 356 356 357 357 357 357 358 360 1 2 3 3 4 5 5
196 200 205 211 218 225 232 239 243 246 248 248 247 246 244 241 238 237 239 242 250 257 263 267 270 271 272 273 274 277 280 286 291 297 304 311 316 319 321 324 325 327 329 331 332 334 335 337 338 340 341 342 342 344 344 345 346 346 347 347 348 349 350 351 352 353 353 353 352 352 354 355 356 356 357 356 356 356 357 358 359 0 1 2 2 3 4 5
197 202 209 216 222 229 236 240 243 246 247 245 244 243 242 239 237 238 240 244 251 258 264 267 268 269 272 274 276 279 282 287 293 298 305 312 316 319 321 323 325 327 328 330 331 333 334 336 337 338 340 341 341 342 343 343 344 345 346 346 347 348 350 350 350 351 352 352 352 352 353 355 355 356 356 356 355 356 356 357 358 359 360 0 1 2 3 3
201 207 214 220 226 233 238 241 244 246 245 243 242 241 241 238 238 240 241 245 252 259 264 267 268 269 273 275 278 280 283 288 293 298 304 310 315 318 320 323 325 326 328 329 330 332 333 334 336 337 339 340 340 340 341 342 343 344 345 345 346 348 349 350 350 350 351 352 352 351 352 354 354 355 355 355 354 355 356 357 358 358 359 359 0 1 2 2
206 214 220 224 230 235 239 242 244 244 242 240 240 240 239 239 239 241 243 246 254 261 264 266 268 270 274 277 279 280 284 288 292 296 302 308 313 316 319 321 323 325 326 328 329 330 331 333 334 336 337 338 339 339 341 342 342 342 343 344 345 347 348 349 349 349 350 351 352 351 351 352 353 354 354 354 354 354 355 357 357 357 358 359 360 0 1 1
212 218 224 229 233 237 239 242 242 240 239 239 239 238 238 240 241 243 246 249 256 261 264 266 269 271 275 278 280 281 284 289 293 296 301 306 311 314 318 320 322 324 325 326 327 328 329 331 333 334 335 337 338 339 339 340 341 341 341 343 345 346 347 348 349 350 349 350 352 351 350 350 352 353 353 354 354 354 355 356 356 356 357 358 359 360 360 0
216 222 227 230 234 237 239 239 239 238 238 238 238 238 239 241 243 246 249 253 257 260 263 266 270 273 276 279 280 282 284 289 293 297 300 304 308 312 315 318 321 322 323 324 324 325 326 328 330 332 333 335 336 337 337 338 340 341 341 342 343 345 346 348 349 350 349 348 350 351 350 349 351 352 353 353 353 353 354 355 355 356 357 358 359 359 359 359
219 224 228 232 236 238 239 239 238 238 239 239 239 239 240 243 246 248 252 256 259 261 263 266 270 274 277 280 281 282 284 288 293 297 301 304 307 310 313 316 318 320 321 322 323 324 325 326 328 330 331 332 334 335 336 337 339 341 341 342 343 344 346 348 348 349 349 347 348 350 351 349 349 350 352 352 353 353 353 354 354 355 356 358 358 358 358 358
221 226 231 235 238 239 239 239 239 240 241 240 240 241 243 246 249 251 255 259 261 262 263 266 271 275 279 282 283 283 285 288 293 297 300 303 306 309 312 314 317 318 319 321 322 323 324 325 327 329 331 332 334 336 337 338 339 341 342 342 342 344 345 347 347 347 348 348 347 348 350 349 347 348 350 352 353 352 352 352 353 355 356 357 357 357 357 357
224 230 233 237 238 239 239 240 241 242 242 242 242 244 246 249 253 256 259 262 263 263 264 267 272 277 281 284 286 286 287 290 293 297 300 303 306 308 311 313 315 317 318 319 320 322 324 326 327 329 331 333 335 337 338 339 339 340 341 342 342 343 345 346 346 346 347 348 347 347 348 348 347 347 349 351 352 352 351 351 353 354 355 356 356 356 356 356
229 233 236 238 238 239 240 242 244 244 244 244 245 247 250 253 256 259 262 263 263 264 265 268 272 277 282 285 288 290 291 293 295 298 301 303 306 308 311 313 315 316 317 318 320 321 323 325 326 327 330 333 335 336 337 337 338 339 340 341 341 342 343 344 345 345 346 347 347 346 346 347 346 346 348 350 351 351 350 351 352 353 354 355 355 355 355 356
231 234 236 237 238 241 243 245 246 246 246 246 247 249 252 255 259 262 264 265 266 266 267 269 273 277 281 285 288 291 293 296 298 300 302 304 306 308 310 312 314 315 317 318 319 320 322 324 325 326 328 331 333 335 336 336 337 338 339 339 340 340 341 342 343 344 345 345 346 346 345 345 345 344 346 349 350 350 350 350 351 352 353 354 355 355 355 355
232 234 235 236 239 242 245 247 247 248 248 248 250 252 255 258 261 264 265 267 268 269 270 272 274 277 281 284 288 291 294 297 299 302 303 305 307 308 310 312 313 315 316 317 318 319 320 322 324 325 326 329 331 333 334 335 335 335 336 337 338 338 338 340 342 343 344 344 344 345 345 344 344 343 345 347 349 349 350 350 351 352 353 354 355 355 355 355
231 232 234 236 240 244 247 249 249 250 251 251 252 254 257 259 262 265 267 269 271 273 274 275 277 279 281 284 288 291 294 296 299 301 303 305 307 308 309 311 313 314 315 316 317 318 320 321 322 324 325 327 329 330 331 332 332 332 334 335 336 336 336 339 341 342 343 343 343 343 343 343 343 343 344 346 349 349 349 350 350 351 353 354 354 355 355 354
231 232 236 239 243 246 249 250 252 252 253 253 254 256 259 261 264 267 269 271 274 276 278 279 280 282 283 286 288 291 293 296 298 301 303 304 306 307 308 310 311 313 314 315 316 317 319 320 321 323 324 325 326 327 328 330 330 331 332 333 334 334 335 337 339 340 341 342 342 342 342 343 343 342 343 345 348 348 348 349 350 351 352 353 353 354 354 354
233 237 240 244 246 249 251 252 254 254 255 256 257 258 261 263 265 268 271 273 276 278 280 282 284 285 286 288 290 292 294 296 299 301 302 304 306 307 308 309 310 312 313 315 316 317 318 320 320 322 323 323 324 325 327 328 329 330 330 331 333 334 335 335 337 338 339 340 341 341 342 342 342 341 342 344 347 347 347 348 349 350 351 352 352 353 353 353